Weather History for KDAW - October, 2013

Change the Weather History Date:

Tuesday, October 1, 2013

  Actual Average (KSFM) Record (KSFM)
Temperature  
Mean Temperature 60 °F -  
Max Temperature 75 °F 62 °F 80 °F (2002)
Min Temperature 45 °F 39 °F 32 °F (2003)
Degree Days  
Heating Degree Days 5    
Growing Degree Days 10 (Base 50)    
Moisture  
Dew Point 49 °F    
Average Humidity 75    
Maximum Humidity 100    
Minimum Humidity 36    
Precipitation  
Precipitation 0.00 in - - ()
Sea Level Pressure  
Sea Level Pressure 29.90 in    
Wind  
Wind Speed 3 mph (NW)    
Max Wind Speed 9 mph    
Max Gust Speed 16 mph    
Visibility 9 miles    
Events      
Averages and records for this station are not official NWS values.
T = Trace of Precipitation, MM = Missing Value Source: NWS Daily Summary

Daily Weather History Graph

Daily Weather History Graph

Search for Another Location

Airport or City:

Trip Planner

Search our weather history database for the weather conditions in past years. The results will help you decide how hot, cold, wet, or windy it might be!

Date:

Astronomy

Oct. 01, 2013 Rise Set
Actual Time 6:41 AM EDT 6:24 PM EDT
Civil Twilight 6:12 AM EDT 6:52 PM EDT
Nautical Twilight 5:39 AM EDT 7:25 PM EDT
Astronomical Twilight 5:06 AM EDT 7:59 PM EDT
Moon 3:07 AM EDT (10/1) 4:30 PM EDT (10/1)
Length of Visible Light 12h 39m
Length of Day
11h 43m
Waning Crescent, 12% of the Moon is Illuminated
Oct 1
Waning Crescent
Oct 4
New
Oct 11
First Quarter
Oct 18
Full
Oct 26
Last Quarter

Hourly Weather History & Observations

Time (EDT) Temp. Windchill Dew Point Humidity Pressure Visibility Wind Dir Wind Speed Gust Speed Precip Events Conditions
12:03 AM 46.4 °F - 44.6 °F 93% 29.97 in 0.8 mi Calm Calm - N/A   Mist
12:24 AM 46.4 °F - 46.4 °F 100% 29.97 in 1.8 mi Calm Calm - N/A   Overcast
12:30 AM 46.4 °F - 44.6 °F 93% 29.97 in 3.0 mi Calm Calm - N/A   Mostly Cloudy
12:41 AM 46.4 °F - 44.6 °F 93% 29.96 in 10.0 mi Calm Calm - N/A   Scattered Clouds
12:51 AM 45.0 °F - 43.0 °F 93% 29.96 in 10.0 mi Calm Calm - N/A   Clear
1:51 AM 45.0 °F 41.2 °F 44.1 °F 97% 29.95 in 10.0 mi NW 6.9 mph - N/A   Clear
2:51 AM 46.0 °F 41.9 °F 45.0 °F 96% 29.93 in 8.0 mi NW 8.1 mph - N/A   Clear
3:51 AM 46.9 °F - 45.0 °F 93% 29.92 in 10.0 mi NW 6.9 mph - N/A   Clear
4:51 AM 46.0 °F 42.5 °F 44.1 °F 93% 29.92 in 9.0 mi NW 6.9 mph - N/A   Clear
5:51 AM 50.0 °F - 48.0 °F 93% 29.92 in 10.0 mi NW 9.2 mph - N/A   Clear
6:51 AM 48.0 °F - 46.0 °F 93% 29.94 in 10.0 mi NW 6.9 mph - N/A   Clear
7:51 AM 53.1 °F - 51.1 °F 93% 29.94 in 10.0 mi NNW 4.6 mph - N/A   Clear
8:51 AM 59.0 °F - 54.0 °F 83% 29.95 in 10.0 mi NNW 5.8 mph - N/A   Clear
9:51 AM 63.0 °F - 54.0 °F 72% 29.94 in 10.0 mi NNW 3.5 mph - N/A   Clear
10:51 AM 69.1 °F - 53.1 °F 57% 29.92 in 10.0 mi NNW 8.1 mph - N/A   Clear
11:51 AM 71.1 °F - 50.0 °F 47% 29.90 in 10.0 mi NNE 8.1 mph - N/A   Clear
12:51 PM 73.9 °F - 51.1 °F 45% 29.88 in 10.0 mi Variable 4.6 mph 16.1 mph N/A   Clear
1:51 PM 75.0 °F - 50.0 °F 41% 29.86 in 10.0 mi North 4.6 mph - N/A   Clear
2:51 PM 75.0 °F - 46.0 °F 36% 29.85 in 10.0 mi NW 8.1 mph - N/A   Clear
3:51 PM 75.0 °F - 50.0 °F 41% 29.83 in 10.0 mi WNW 8.1 mph - N/A   Clear
4:51 PM 75.0 °F - 48.9 °F 40% 29.83 in 10.0 mi Calm Calm - N/A   Clear
5:51 PM 70.0 °F - 52.0 °F 53% 29.84 in 10.0 mi Calm Calm - N/A   Clear
6:51 PM 66.0 °F - 52.0 °F 60% 29.85 in 10.0 mi Calm Calm - N/A   Clear
7:51 PM 62.1 °F - 53.1 °F 72% 29.86 in 10.0 mi Calm Calm - N/A   Clear
8:51 PM 63.0 °F - 54.0 °F 72% 29.86 in 10.0 mi Calm Calm - N/A   Clear
9:51 PM 57.9 °F - 54.0 °F 87% 29.86 in 10.0 mi NW 6.9 mph - N/A   Clear
10:51 PM 57.9 °F - 53.1 °F 84% 29.86 in 10.0 mi NW 3.5 mph - N/A   Clear
11:51 PM 55.9 °F - 52.0 °F 87% 29.86 in 10.0 mi NW 5.8 mph - N/A   Clear